Change the Weather History Date:

Tuesday, January 28, 2014

  Actual Average Record
Temperature  
Mean Temperature 2 °F -  
Max Temperature 14 °F 28 °F 51 °F (1976)
Min Temperature -9 °F 7 °F -21 °F (1972)
Degree Days  
Heating Degree Days 62    
Moisture  
Dew Point -13 °F    
Average Humidity 53    
Maximum Humidity 71    
Minimum Humidity 32    
Precipitation  
Precipitation 0.00 in - - ()
Sea Level Pressure  
Sea Level Pressure 30.33 in    
Wind  
Wind Speed 8 mph (West)    
Max Wind Speed 23 mph    
Max Gust Speed 26 mph    
Visibility 10 miles    
Events      
Averages and records for this station are not official NWS values.
T = Trace of Precipitation, MM = Missing Value Source: NWS Daily Summary

Daily Weather History Graph

Daily Weather History Graph

Search for Another Location

Airport or City:

Trip Planner

Search our weather history database for the weather conditions in past years. The results will help you decide how hot, cold, wet, or windy it might be!

Date:

Astronomy

Jan. 28, 2014 Rise Set
Actual Time 7:35 AM CST 5:28 PM CST
Civil Twilight 7:05 AM CST 5:58 PM CST
Nautical Twilight 6:32 AM CST 6:32 PM CST
Astronomical Twilight 5:59 AM CST 7:05 PM CST
Moon 5:18 AM CST (1/28) 3:19 PM CST (1/28)
Length of Visible Light 10h 52m
Length of Day
9h 53m
Waning Crescent, 7% of the Moon is Illuminated
Jan 28
Waning Crescent
Jan 30
New
Feb 6
First Quarter
Feb 14
Full
Feb 22
Last Quarter

Hourly Weather History & Observations

Time (CST) Temp. Windchill Dew Point Humidity Pressure Visibility Wind Dir Wind Speed Gust Speed Precip Events Conditions
12:15 AM -7.6 °F -18.8 °F -16.6 °F 65% 30.43 in 10.0 mi West 4.6 mph - N/A   Overcast
12:35 AM -7.6 °F -20.6 °F -16.6 °F 65% 30.43 in 10.0 mi West 5.8 mph - N/A   Overcast
12:50 AM -9.4 °F -22.7 °F -18.4 °F 65% 30.43 in 10.0 mi West 5.8 mph - N/A   Overcast
1:15 AM -7.6 °F -20.6 °F -16.6 °F 65% 30.42 in 10.0 mi West 5.8 mph - N/A   Mostly Cloudy
1:35 AM -9.4 °F -24.3 °F -16.6 °F 71% 30.42 in 10.0 mi West 6.9 mph - N/A   Scattered Clouds
1:55 AM -9.4 °F -22.7 °F -18.4 °F 65% 30.42 in 10.0 mi West 5.8 mph - N/A   Partly Cloudy
2:15 AM -9.4 °F -20.9 °F -18.4 °F 65% 30.42 in 10.0 mi WNW 4.6 mph - N/A   Partly Cloudy
2:35 AM -9.4 °F -20.9 °F -18.4 °F 65% 30.43 in 10.0 mi West 4.6 mph - N/A   Scattered Clouds
2:55 AM -9.4 °F -20.9 °F -18.4 °F 65% 30.42 in 10.0 mi West 4.6 mph - N/A   Scattered Clouds
3:15 AM -9.4 °F -24.3 °F -16.6 °F 71% 30.42 in 10.0 mi West 6.9 mph - N/A   Partly Cloudy
3:35 AM -9.4 °F -25.6 °F -16.6 °F 71% 30.42 in 10.0 mi West 8.1 mph - N/A   Mostly Cloudy
3:55 AM -9.4 °F -24.3 °F -16.6 °F 71% 30.42 in 10.0 mi West 6.9 mph - N/A   Scattered Clouds
4:15 AM -9.4 °F -25.6 °F -18.4 °F 65% 30.42 in 10.0 mi West 8.1 mph - N/A   Partly Cloudy
4:35 AM -9.4 °F -25.6 °F -16.6 °F 71% 30.42 in 10.0 mi West 8.1 mph - N/A   Partly Cloudy
4:55 AM -9.4 °F -25.6 °F -18.4 °F 65% 30.42 in 10.0 mi West 8.1 mph - N/A   Scattered Clouds
5:15 AM -9.4 °F -25.6 °F -18.4 °F 65% 30.41 in 10.0 mi West 8.1 mph - N/A   Scattered Clouds
5:35 AM -7.6 °F -23.4 °F -16.6 °F 65% 30.41 in 10.0 mi West 8.1 mph - N/A   Scattered Clouds
5:55 AM -9.4 °F -24.3 °F -18.4 °F 65% 30.41 in 10.0 mi West 6.9 mph - N/A   Scattered Clouds
6:15 AM -7.6 °F -22.1 °F -16.6 °F 65% 30.40 in 10.0 mi West 6.9 mph - N/A   Scattered Clouds
6:35 AM -7.6 °F -22.1 °F -16.6 °F 65% 30.40 in 10.0 mi West 6.9 mph - N/A   Scattered Clouds
6:55 AM -9.4 °F -20.9 °F -18.4 °F 65% 30.39 in 10.0 mi WSW 4.6 mph - N/A   Scattered Clouds
7:15 AM -9.4 °F -22.7 °F -16.6 °F 71% 30.39 in 10.0 mi West 5.8 mph - N/A   Clear
7:35 AM -9.4 °F -20.9 °F -18.4 °F 65% 30.39 in 10.0 mi West 4.6 mph - N/A   Clear
7:55 AM -9.4 °F -24.3 °F -16.6 °F 71% 30.39 in 9.0 mi West 6.9 mph - N/A   Clear
8:15 AM -5.8 °F -19.9 °F -14.8 °F 65% 30.39 in 5.0 mi West 6.9 mph - N/A   Haze
8:35 AM -2.2 °F -15.6 °F -13.0 °F 60% 30.40 in 10.0 mi West 6.9 mph - N/A   Clear
8:55 AM -0.4 °F -15.7 °F -11.2 °F 60% 30.39 in 10.0 mi WNW 9.2 mph - N/A   Clear
9:15 AM 1.4 °F -13.5 °F -9.4 °F 61% 30.39 in 10.0 mi WNW 9.2 mph - N/A   Clear
9:35 AM 3.2 °F -12.2 °F -9.4 °F 56% 30.39 in 10.0 mi WNW 10.4 mph - N/A   Clear
9:55 AM 5.0 °F -10.8 °F -7.6 °F 56% 30.39 in 10.0 mi WNW 11.5 mph - N/A   Clear
10:10 AM 6.8 °F -10.7 °F -7.6 °F 52% 30.39 in 10.0 mi WNW 15.0 mph - N/A   Clear
10:35 AM 8.6 °F -8.9 °F -7.6 °F 48% 30.39 in 10.0 mi NW 16.1 mph 21.9 mph N/A   Clear
10:55 AM 8.6 °F -8.3 °F -9.4 °F 44% 30.38 in 10.0 mi NW 15.0 mph 21.9 mph N/A   Clear
11:15 AM 10.4 °F -5.4 °F -7.6 °F 44% 30.38 in 10.0 mi West 13.8 mph 20.7 mph N/A   Clear
11:35 AM 10.4 °F -7.2 °F -7.6 °F 44% 30.37 in 10.0 mi WNW 17.3 mph - N/A   Clear
11:55 AM 12.2 °F -4.3 °F -9.4 °F 38% 30.35 in 10.0 mi WNW 16.1 mph 24.2 mph N/A   Clear
12:15 PM 12.2 °F -3.7 °F -9.4 °F 38% 30.34 in 10.0 mi West 15.0 mph 23.0 mph N/A   Clear
12:35 PM 12.2 °F -3.1 °F -7.6 °F 41% 30.33 in 10.0 mi West 13.8 mph 26.5 mph N/A   Clear
12:55 PM 12.2 °F -6.7 °F -9.4 °F 38% 30.32 in 10.0 mi West 21.9 mph - N/A   Clear
1:15 PM 14.0 °F -4.7 °F -9.4 °F 35% 30.32 in 10.0 mi West 23.0 mph - N/A   Clear
1:35 PM 14.0 °F -1.4 °F -9.4 °F 35% 30.30 in 10.0 mi WNW 15.0 mph - N/A   Clear
1:55 PM 14.0 °F -2.5 °F -9.4 °F 35% 30.29 in 10.0 mi WNW 17.3 mph 24.2 mph N/A   Clear
2:15 PM 14.0 °F -1.4 °F -9.4 °F 35% 30.28 in 10.0 mi WNW 15.0 mph 23.0 mph N/A   Clear
2:35 PM 14.0 °F -1.4 °F -9.4 °F 35% 30.28 in 10.0 mi WNW 15.0 mph 20.7 mph N/A   Clear
2:55 PM 14.0 °F -2.5 °F -9.4 °F 35% 30.27 in 10.0 mi WNW 17.3 mph 23.0 mph N/A   Clear
3:15 PM 14.0 °F -3.0 °F -11.2 °F 32% 30.27 in 10.0 mi NW 18.4 mph 25.3 mph N/A   Clear
3:35 PM 14.0 °F -3.4 °F -11.2 °F 32% 30.27 in 10.0 mi West 19.6 mph - N/A   Clear
3:55 PM 14.0 °F -2.0 °F -11.2 °F 32% 30.27 in 10.0 mi West 16.1 mph 21.9 mph N/A   Clear
4:15 PM 14.0 °F -2.0 °F -11.2 °F 32% 30.27 in 10.0 mi WNW 16.1 mph - N/A   Clear
4:35 PM 14.0 °F -2.0 °F -11.2 °F 32% 30.26 in 10.0 mi WNW 16.1 mph - N/A   Clear
4:55 PM 12.2 °F -2.5 °F -11.2 °F 34% 30.26 in 10.0 mi NW 12.7 mph 18.4 mph N/A   Clear
5:15 PM 12.2 °F -2.5 °F -11.2 °F 34% 30.26 in 10.0 mi NW 12.7 mph - N/A   Clear
5:35 PM 10.4 °F -1.5 °F -11.2 °F 37% 30.26 in 10.0 mi NW 8.1 mph - N/A   Clear
5:55 PM 8.6 °F -2.6 °F -11.2 °F 40% 30.26 in 10.0 mi NW 6.9 mph - N/A   Clear
6:15 PM 6.8 °F -3.5 °F -13.0 °F 40% 30.26 in 10.0 mi WNW 5.8 mph - N/A   Clear
6:35 PM 5.0 °F -6.9 °F -13.0 °F 43% 30.26 in 10.0 mi WNW 6.9 mph - N/A   Partly Cloudy
6:55 PM 3.2 °F -7.8 °F -13.0 °F 47% 30.25 in 9.0 mi West 5.8 mph - N/A   Partly Cloudy
7:15 PM 3.2 °F -6.2 °F -13.0 °F 47% 30.25 in 9.0 mi West 4.6 mph - N/A   Clear
7:35 PM 3.2 °F -7.8 °F -13.0 °F 47% 30.24 in 10.0 mi WSW 5.8 mph - N/A   Partly Cloudy
7:55 PM 1.4 °F -11.3 °F -14.8 °F 47% 30.23 in 10.0 mi West 6.9 mph - N/A   Clear
8:15 PM 1.4 °F -8.3 °F -13.0 °F 51% 30.22 in 10.0 mi West 4.6 mph - N/A   Clear
8:35 PM 1.4 °F -6.2 °F -13.0 °F 51% 30.22 in 10.0 mi WSW 3.5 mph - N/A   Clear
8:55 PM 1.4 °F -8.3 °F -13.0 °F 51% 30.22 in 10.0 mi West 4.6 mph - N/A   Partly Cloudy
9:15 PM -0.4 °F -8.3 °F -13.0 °F 55% 30.22 in 10.0 mi WNW 3.5 mph - N/A   Clear
9:35 PM -0.4 °F - -13.0 °F 55% 30.22 in 10.0 mi Calm Calm - N/A   Partly Cloudy
9:55 PM 1.4 °F - -13.0 °F 51% 30.22 in 9.0 mi Calm Calm - N/A   Partly Cloudy
10:15 PM -0.4 °F - -13.0 °F 55% 30.21 in 10.0 mi Calm Calm - N/A   Clear
10:35 PM -0.4 °F -8.3 °F -13.0 °F 55% 30.21 in 10.0 mi West 3.5 mph - N/A   Clear
10:55 PM -2.2 °F -12.5 °F -13.0 °F 60% 30.21 in 10.0 mi West 4.6 mph - N/A   Partly Cloudy
11:15 PM -2.2 °F -10.4 °F -13.0 °F 60% 30.20 in 10.0 mi West 3.5 mph - N/A   Partly Cloudy
11:35 PM -0.4 °F -8.3 °F -13.0 °F 55% 30.20 in 10.0 mi West 3.5 mph - N/A   Partly Cloudy
11:55 PM 1.4 °F -6.2 °F -13.0 °F 51% 30.20 in 10.0 mi West 3.5 mph - N/A   Clear